This is the latest recevied weather packets stored in our database for station/object EB1HRW. If no packets are shown the sender has not sent any weather packets the latest 10 day(s).
| Time | Temp. | Humidity | Pressure | Rain* | Wind** | Luminosity | Snow |
|---|---|---|---|---|---|---|---|
| 1787563077 | 20.56° C | 68% | 1008.7 hPa | 0 mm | - | - | - |
| 1787562178 | 20.56° C | 69% | 1008.9 hPa | 0 mm | - | - | - |
| 1787561278 | 20° C | 69% | 1008.8 hPa | 0 mm | - | - | - |
| 1787560379 | 20° C | 70% | 1009 hPa | 0 mm | - | - | - |
| 1787559477 | 20° C | 70% | 1009.2 hPa | 0 mm | - | - | - |
| 1787558578 | 20° C | 70% | 1009.1 hPa | 0 mm | - | - | - |
| 1787557679 | 20° C | 69% | 1009.1 hPa | 0 mm | - | - | - |
| 1787556777 | 20.56° C | 67% | 1009.2 hPa | 0 mm | - | - | - |
| 1787555878 | 20.56° C | 67% | 1009.2 hPa | 0 mm | - | - | - |
| 1787554979 | 20.56° C | 67% | 1009.2 hPa | 0 mm | - | - | - |
| 1787554077 | 20° C | 65% | 1009 hPa | 0 mm | - | - | - |
| 1787553178 | 20° C | 64% | 1009 hPa | 0 mm | - | - | - |
| 1787548677 | 18.89° C | 60% | 1008.7 hPa | 0 mm | - | - | - |
| 1787547778 | 18.89° C | 60% | 1008.5 hPa | 0 mm | - | - | - |
| 1787546879 | 18.89° C | 58% | 1009 hPa | 0 mm | - | - | - |
| 1787545978 | 18.89° C | 57% | 1009.1 hPa | 0 mm | - | - | - |
| 1787545079 | 19.44° C | 57% | 1009.2 hPa | 0 mm | - | - | - |
| 1787544178 | 19.44° C | 55% | 1009 hPa | 0 mm | - | - | - |
| 1787543278 | 19.44° C | 54% | 1009.2 hPa | 0 mm | - | - | - |
| 1787542379 | 19.44° C | 53% | 1009 hPa | 0 mm | - | - | - |
| 1787541478 | 20° C | 52% | 1009.1 hPa | 0 mm | - | - | - |
| 1787540578 | 20.56° C | 47% | 1009 hPa | 0 mm | - | - | - |
| 1787539679 | 20.56° C | 46% | 1008.8 hPa | 0 mm | - | - | - |
| 1787538778 | 20.56° C | 44% | 1008.9 hPa | 0 mm | - | - | - |
| 1787537878 | 20.56° C | 44% | 1008.8 hPa | 0 mm | - | - | - |
* Rain latest hour (hover to see other rain measurements)
** Current wind speed in m/s (hover to see current wind gust speed)